Regional Weather Roundup
Issued by NWS

Home | Current Version | Previous Version | Text Only | Print | Product List | Glossary On
Versions: 1 2 3 4 5 6 7 8 9 10 11 12 13 14 15 16 17 18 19 20 21 22 23 24 25 26 27 28 29 30 31 32 33 34 35 36 37 38 39 40 41 42 43 44 45 46 47 48 49 50
000
ASUS42 KFFC 281810
RWRGA
WEATHER ROUNDUP FOR GEORGIA
NATIONAL WEATHER SERVICE PEACHTREE CITY GA
200 PM EDT FRI AUG 28 2015

NOTE: "FAIR" INDICATES FEW OR NO CLOUDS BELOW 12,000 FEET WITH NO
SIGNIFICANT WEATHER AND/OR OBSTRUCTIONS TO VISIBILITY.

* = USE WITH CAUTION. THE STATIONS MARKED WITH AN ASTERISK MAY NOT
REPORT WEATHER SUCH AS PRECIPITATION, FOG, OR THUNDER AND ARE NOT
QUALITY CONTROLLED BY NWS.

THE REMARK "TC" DENOTES TEMPERATURE READING IN DEGREES CELSIUS.

GAZ001>058-281900-
NORTH GEORGIA

CITY           SKY/WX    TMP DP  RH WIND       PRES   REMARKS
ATLANTA        PTSUNNY   78  67  68 SE8       30.17F
6HR MIN TEMP:  71; 6HR MAX TEMP:  79;

ATHENS         PTSUNNY   81  66  60 NE7       30.17F
6HR MIN TEMP:  69; 6HR MAX TEMP:  82;

CHAMBLEE       MOSUNNY   79  67  66 E8        30.17F
6HR MIN TEMP:  70; 6HR MAX TEMP:  82;

PEACHTREE CITY PTSUNNY   78  69  73 NE8       30.16F
6HR MIN TEMP:  71; 6HR MAX TEMP:  79;

ROME           MOSUNNY   83  69  62 E8        30.13F
6HR MIN TEMP:  68; 6HR MAX TEMP:  83;

WEST ATLANTA   PTSUNNY   79  67  66 VRB7      30.16F
6HR MIN TEMP:  71; 6HR MAX TEMP:  79;

GAINESVILLE    PTSUNNY   77  65  66 E12G20    30.21F
6HR MIN TEMP:  69; 6HR MAX TEMP:  79;

CARTERSVILLE   PTSUNNY   80  67  64 E9        30.15F
6HR MIN TEMP:  69; 6HR MAX TEMP:  81;



CITY           SKY/WX    TMP DP  RH WIND       PRES   REMARKS
DALTON*        MOSUNNY   82  68  61 SE7       30.15F
LAWRENCEVILLE* PTSUNNY   81  63  54 E12       30.18F
MARIETTA       CLOUDY    80  68  67 E9        30.16F
KENNESAW*      PTSUNNY   79  64  61 E8G18     30.18F
BLAIRSVILLE*     N/A     78  31  18 S5        30.20F
$$

GAZ059>098-102>109-281900-
CENTRAL GEORGIA

CITY           SKY/WX    TMP DP  RH WIND       PRES   REMARKS
AUGUSTA-BUSH   PTSUNNY   86  70  58 N9        30.13F HX  90
6HR MIN TEMP:  71; 6HR MAX TEMP:  86;

AUGUSTA-DANIEL PTSUNNY   83  67  58 NE7       30.15F
6HR MIN TEMP:  71; 6HR MAX TEMP:  83;

COLUMBUS       PTSUNNY   85  70  60 E10       30.08F
6HR MIN TEMP:  73; 6HR MAX TEMP:  85;

MACON          PTSUNNY   85  70  60 NE13G20   30.11S
6HR MIN TEMP:  71; 6HR MAX TEMP:  86;

ROBINS AFB     MOSUNNY   84  71  64 NE9G17    30.10F


CITY           SKY/WX    TMP DP  RH WIND       PRES   REMARKS
LAGRANGE*      MOSUNNY   87  77  71 E6        30.10F HX  99
SYLVANIA*      PTSUNNY   85  76  74 NE5       30.13F HX  93
MILLEDGEVILLE* PTSUNNY   81  70  69 NE3       30.15F
$$

GAZ099>101-110>166-281900-
SOUTH GEORGIA

CITY           SKY/WX    TMP DP  RH WIND       PRES   REMARKS
SAVANNAH       CLOUDY    82  72  71 N9        30.11F
6HR MIN TEMP:  73; 6HR MAX TEMP:  82;

VALDOSTA       CLOUDY    87  75  67 S3        30.04F HX  96
6HR MIN TEMP:  72; 6HR MAX TEMP:  87;

ALMA           CLOUDY    86  73  65 E7        30.07F HX  93
6HR MIN TEMP:  74; 6HR MAX TEMP:  87;

ST SIMONS      HVY RAIN  72  70  93 NE16G25   30.08F VSB 1/2
6HR MIN TEMP:  73; 6HR MAX TEMP:  88; 6HR PCP:  0.87;

FT STEWART     CLOUDY    82  73  75 NE5       30.09S
ALBANY         PTSUNNY   87  73  62 SE9       30.07F HX  94
HUNTER AFB     CLOUDY    81  76  84 NE7       30.08F
MOODY AFB      CLOUDY    87  72  61 VRB5      30.04F HX  93
BRUNSWICK      PTSUNNY   75  68  78 N7        30.10R THUNDER


CITY           SKY/WX    TMP DP  RH WIND       PRES   REMARKS
BAINBRIDGE*    CLOUDY    91  72  52 E8        30.03F HX  98
MOULTRIE*      PTSUNNY   82  73  74 CALM      30.06F
VIDALIA*       PTSUNNY   84  72  65 E12       30.11S
WAYCROSS*      TSTM      77  74  93 E21G29    30.08R
DOUGLAS*       CLOUDY    88  72  58 E7        30.07F THUNDER HX  94
$$


USA.gov is the U.S. government's official web portal to all federal, state and local government web resources and services.